| time (UTC) | temp F | wind direction | speed knots | gust knots | rain 1hr in | rain 24hr in | rain mn in | humidity % | barometer mb |
| 20260502162850 | 71 | 17 | 1.7 | 6.1 | 0.00 | 0.00 | 0.00 | 56 | 1021.4 |
| 20260502162346 | 70 | 32 | 2.6 | 5.2 | 0.00 | 0.00 | 0.00 | 56 | 1021.4 |
| 20260502161843 | 71 | 297 | 3.5 | 5.2 | 0.00 | 0.00 | 0.00 | 55 | 1021.3 |
| 20260502161339 | 70 | 354 | 2.6 | 5.2 | 0.00 | 0.00 | 0.00 | 59 | 1021.4 |
| 20260502160837 | 69 | 344 | 3.5 | 6.1 | 0.00 | 0.00 | 0.00 | 60 | 1021.6 |
| 20260502160336 | 69 | 31 | 1.7 | 7.0 | 0.00 | 0.00 | 0.00 | 60 | 1021.5 |
| 20260502152310 | 66 | 350 | 2.6 | 7.0 | 0.00 | 0.00 | 0.00 | 66 | 1021.4 |
| 20260502151808 | 66 | 302 | 1.7 | 6.1 | 0.00 | 0.00 | 0.00 | 67 | 1021.5 |
| 20260502151305 | 67 | 38 | 3.5 | 7.0 | 0.00 | 0.00 | 0.00 | 65 | 1021.3 |
| 20260502150803 | 67 | 1 | 1.7 | 2.6 | 0.00 | 0.00 | 0.00 | 69 | 1021.4 |
| 20260502150259 | 66 | 49 | 1.7 | 7.0 | 0.00 | 0.00 | 0.00 | 69 | 1021.5 |
| 20260502130647 | 57 | 10 | 0.9 | 3.5 | 0.00 | 0.00 | 0.00 | 89 | 1020.2 |
| 20260502130145 | 56 | 233 | 0.9 | 1.7 | 0.00 | 0.00 | 0.00 | 90 | 1020.0 |
| 20260502123630 | 55 | 12 | 0.9 | 3.5 | 0.00 | 0.00 | 0.00 | 91 | 1019.7 |
| 20260502123127 | 55 | 14 | 0.0 | 1.7 | 0.00 | 0.00 | 0.00 | 91 | 1019.6 |
| 20260502122624 | 55 | 351 | 1.7 | 3.5 | 0.00 | 0.00 | 0.00 | 91 | 1019.4 |
| 20260502122120 | 54 | 354 | 0.0 | 2.6 | 0.00 | 0.00 | 0.00 | 91 | 1019.4 |
| 20260502121619 | 54 | 14 | 1.7 | 2.6 | 0.00 | 0.00 | 0.00 | 91 | 1019.4 |
| 20260502121116 | 54 | 350 | 0.9 | 1.7 | 0.00 | 0.00 | 0.00 | 91 | 1019.2 |
| 20260502120612 | 54 | 3 | 0.0 | 3.5 | 0.00 | 0.00 | 0.00 | 91 | 1019.1 |
| 20260502120109 | 54 | 351 | 0.9 | 3.5 | 0.00 | 0.00 | 0.00 | 91 | 1019.4 |
| 20260502115607 | 54 | 22 | 1.7 | 3.5 | 0.00 | 0.00 | 0.00 | 91 | 1019.2 |
| 20260502115102 | 54 | 347 | 0.9 | 1.7 | 0.00 | 0.00 | 0.00 | 91 | 1019.2 |
| 20260502114559 | 54 | 21 | 0.9 | 5.2 | 0.00 | 0.00 | 0.00 | 91 | 1018.9 |
| 20260502114056 | 54 | 314 | 1.7 | 3.5 | 0.00 | 0.00 | 0.00 | 91 | 1019.1 |
| 20260502113553 | 54 | 313 | 0.0 | 2.6 | 0.00 | 0.00 | 0.00 | 91 | 1018.9 |
| 20260502113052 | 54 | 37 | 0.0 | 3.5 | 0.00 | 0.00 | 0.00 | 91 | 1018.8 |
| 20260502112549 | 54 | 296 | 3.5 | 7.0 | 0.00 | 0.00 | 0.00 | 91 | 1018.7 |
| 20260502112047 | 54 | 11 | 1.7 | 3.5 | 0.00 | 0.00 | 0.00 | 91 | 1018.6 |
| 20260502111544 | 54 | 321 | 0.9 | 1.7 | 0.00 | 0.00 | 0.00 | 91 | 1018.4 |
| 20260502111041 | 54 | 11 | 0.0 | 1.7 | 0.00 | 0.00 | 0.00 | 91 | 1018.7 |
| 20260502110538 | 54 | 317 | 0.0 | 1.7 | 0.00 | 0.00 | 0.00 | 91 | 1018.7 |
| 20260502110036 | 53 | 311 | 0.9 | 0.9 | 0.00 | 0.00 | 0.00 | 91 | 1018.7 |
| 20260502105533 | 53 | 312 | 0.0 | 0.9 | 0.00 | 0.00 | 0.00 | 91 | 1018.6 |
| 20260502105031 | 53 | 297 | 0.0 | 0.9 | 0.00 | 0.00 | 0.00 | 90 | 1018.7 |
| 20260502104527 | 54 | 319 | 0.0 | 0.0 | 0.00 | 0.00 | 0.00 | 89 | 1018.4 |
| 20260502104025 | 54 | 310 | 0.0 | 0.0 | 0.00 | 0.00 | 0.00 | 88 | 1018.6 |
| 20260502103523 | 54 | 333 | 0.0 | 0.0 | 0.00 | 0.00 | 0.00 | 87 | 1018.5 |
| 20260502103021 | 55 | 358 | 0.0 | 1.7 | 0.00 | 0.00 | 0.00 | 87 | 1018.4 |
| 20260502102516 | 55 | 333 | 0.0 | 0.9 | 0.00 | 0.00 | 0.00 | 87 | 1018.2 |
| 20260502102014 | 55 | 325 | 0.0 | 0.9 | 0.00 | 0.00 | 0.00 | 87 | 1018.1 |
| 20260502101512 | 55 | 329 | 0.0 | 2.6 | 0.00 | 0.00 | 0.00 | 87 | 1017.9 |
| 20260502101010 | 55 | 335 | 0.9 | 0.9 | 0.00 | 0.00 | 0.00 | 86 | 1018.0 |
| 20260502100508 | 55 | 334 | 0.0 | 1.7 | 0.00 | 0.00 | 0.00 | 86 | 1017.9 |
| 20260502091442 | 56 | 15 | 0.0 | 1.7 | 0.00 | 0.00 | 0.00 | 87 | 1016.9 |
| 20260502090940 | 56 | 346 | 0.9 | 2.6 | 0.00 | 0.00 | 0.00 | 88 | 1017.0 |
| 20260502090436 | 56 | 357 | 1.7 | 5.2 | 0.00 | 0.00 | 0.00 | 88 | 1016.8 |
| 20260502071331 | 57 | 46 | 1.7 | 3.5 | 0.00 | 0.00 | 0.00 | 91 | 1016.8 |
| 20260502070829 | 57 | 305 | 0.9 | 3.5 | 0.00 | 0.00 | 0.00 | 91 | 1016.8 |
| 20260502070326 | 57 | 318 | 1.7 | 3.5 | 0.00 | 0.00 | 0.00 | 91 | 1016.8 |
| 20260502065825 | 57 | 340 | 0.9 | 3.5 | 0.00 | 0.00 | 0.00 | 91 | 1016.9 |
| 20260502065323 | 57 | 1 | 3.5 | 6.1 | 0.00 | 0.00 | 0.00 | 91 | 1016.9 |
| 20260502064821 | 57 | 22 | 1.7 | 2.6 | 0.00 | 0.00 | 0.00 | 92 | 1016.8 |
| 20260502064319 | 57 | 18 | 0.9 | 5.2 | 0.00 | 0.00 | 0.00 | 92 | 1016.8 |
| 20260502063816 | 57 | 317 | 0.9 | 3.5 | 0.00 | 0.00 | 0.00 | 92 | 1016.7 |
| 20260502063314 | 57 | 16 | 0.9 | 5.2 | 0.00 | 0.00 | 0.00 | 91 | 1016.7 |
| 20260502062810 | 57 | 306 | 1.7 | 5.2 | 0.00 | 0.00 | 0.00 | 91 | 1016.5 |
| 20260502062308 | 57 | 11 | 1.7 | 3.5 | 0.00 | 0.00 | 0.00 | 91 | 1016.6 |
| 20260502061806 | 57 | 12 | 1.7 | 2.6 | 0.00 | 0.00 | 0.00 | 92 | 1016.5 |
| 20260502061304 | 57 | 341 | 1.7 | 2.6 | 0.00 | 0.00 | 0.00 | 91 | 1016.5 |
| 20260502060759 | 57 | 128 | 2.6 | 6.1 | 0.00 | 0.00 | 0.00 | 91 | 1016.4 |
| 20260502060255 | 57 | 32 | 0.9 | 6.1 | 0.00 | 0.00 | 0.00 | 92 | 1016.5 |
| 20260502055753 | 57 | 315 | 3.5 | 7.0 | 0.00 | 0.00 | 0.00 | 92 | 1016.3 |
| 20260502055250 | 57 | 283 | 3.5 | 7.0 | 0.00 | 0.00 | 0.00 | 92 | 1016.2 |
| 20260502054749 | 57 | 23 | 3.5 | 6.1 | 0.00 | 0.00 | 0.00 | 92 | 1016.2 |
| 20260502054246 | 57 | 274 | 4.3 | 7.0 | 0.00 | 0.00 | 0.00 | 92 | 1016.1 |
| 20260502053744 | 57 | 288 | 1.7 | 7.0 | 0.00 | 0.00 | 0.00 | 92 | 1016.2 |
| 20260502053241 | 57 | 344 | 0.9 | 5.2 | 0.00 | 0.00 | 0.00 | 93 | 1016.3 |
| 20260502052739 | 57 | 85 | 1.7 | 6.1 | 0.00 | 0.00 | 0.00 | 93 | 1016.3 |
| 20260502052237 | 57 | 9 | 0.0 | 2.6 | 0.00 | 0.00 | 0.00 | 92 | 1016.3 |
| 20260502051735 | 57 | 24 | 0.9 | 3.5 | 0.00 | 0.00 | 0.00 | 92 | 1016.1 |
| 20260502051233 | 57 | 329 | 1.7 | 2.6 | 0.00 | 0.00 | 0.00 | 93 | 1016.3 |
| 20260502050729 | 57 | 34 | 1.7 | 5.2 | 0.00 | 0.00 | 0.00 | 93 | 1016.4 |
| 20260502050225 | 57 | 168 | 1.7 | 8.7 | 0.00 | 0.00 | 0.00 | 93 | 1016.5 |
| 20260502045722 | 57 | 22 | 4.3 | 7.0 | 0.00 | 3.20 | 3.20 | 93 | 1016.5 |
| 20260502045219 | 57 | 325 | 3.5 | 5.2 | 0.00 | 3.20 | 3.20 | 93 | 1016.4 |
| 20260502044716 | 57 | 16 | 3.5 | 5.2 | 0.00 | 3.20 | 3.20 | 94 | 1016.3 |
| 20260502044212 | 57 | 6 | 0.9 | 7.0 | 0.00 | 3.20 | 3.20 | 94 | 1016.1 |
| 20260502043710 | 57 | 309 | 1.7 | 6.1 | 0.00 | 3.20 | 3.20 | 94 | 1016.3 |
| 20260502043207 | 57 | 321 | 1.7 | 5.2 | 0.00 | 3.20 | 3.20 | 94 | 1016.4 |
| 20260502042706 | 57 | 58 | 3.5 | 7.0 | 0.00 | 3.20 | 3.20 | 94 | 1016.4 |
| 20260502042204 | 57 | 21 | 3.5 | 5.2 | 0.00 | 3.20 | 3.20 | 94 | 1016.2 |
| 20260502041701 | 57 | 28 | 0.9 | 5.2 | 0.00 | 3.20 | 3.20 | 94 | 1016.2 |
| 20260502041158 | 57 | 31 | 4.3 | 7.8 | 0.00 | 3.20 | 3.20 | 95 | 1016.3 |
| 20260502040655 | 57 | 17 | 2.6 | 7.0 | 0.00 | 3.20 | 3.20 | 95 | 1016.2 |
| 20260502040152 | 57 | 315 | 2.6 | 5.2 | 0.00 | 3.20 | 3.20 | 95 | 1016.2 |
| 20260502035648 | 57 | 330 | 1.7 | 3.5 | 0.00 | 3.20 | 3.20 | 95 | 1016.3 |
| 20260502035145 | 57 | 334 | 1.7 | 8.7 | 0.00 | 3.20 | 3.20 | 95 | 1016.1 |
| 20260502034643 | 57 | 24 | 2.6 | 6.1 | 0.00 | 3.20 | 3.20 | 95 | 1016.2 |
| 20260502034141 | 57 | 3 | 0.9 | 5.2 | 0.00 | 3.20 | 3.20 | 95 | 1015.9 |
| 20260502033639 | 57 | 26 | 0.9 | 3.5 | 0.00 | 3.20 | 3.20 | 95 | 1016.0 |
| 20260502033137 | 57 | 22 | 4.3 | 7.8 | 0.00 | 3.20 | 3.20 | 95 | 1015.7 |
| 20260502032632 | 58 | 331 | 2.6 | 5.2 | 0.00 | 3.20 | 3.20 | 96 | 1015.6 |
| 20260502032129 | 58 | 328 | 0.9 | 6.1 | 0.00 | 3.20 | 3.20 | 96 | 1015.5 |
| 20260502031627 | 58 | 3 | 0.9 | 2.6 | 0.00 | 3.20 | 3.20 | 96 | 1015.5 |
| 20260502031124 | 58 | 319 | 1.7 | 2.6 | 0.00 | 3.20 | 3.20 | 96 | 1015.3 |
| 20260502030623 | 58 | 11 | 3.5 | 8.7 | 0.00 | 3.20 | 3.20 | 96 | 1015.0 |
| 20260502030121 | 58 | 14 | 2.6 | 3.5 | 0.00 | 3.20 | 3.20 | 96 | 1015.3 |
| 20260502025618 | 58 | 352 | 1.7 | 2.6 | 0.00 | 3.20 | 3.20 | 96 | 1014.5 |
| 20260502025116 | 58 | 15 | 2.6 | 5.2 | 0.00 | 3.20 | 3.20 | 96 | 1014.8 |
| 20260502024614 | 58 | 333 | 1.7 | 7.8 | 0.00 | 3.20 | 3.20 | 97 | 1014.6 |
| 20260502024111 | 59 | 24 | 2.6 | 5.2 | 0.00 | 3.20 | 3.20 | 97 | 1014.4 |
| 20260502023609 | 59 | 344 | 0.9 | 7.8 | 0.05 | 3.20 | 3.20 | 97 | 1014.1 |
| 20260502023106 | 59 | 327 | 0.9 | 1.7 | 0.05 | 3.20 | 3.20 | 97 | 1014.3 |
| 20260502022602 | 59 | 335 | 1.7 | 3.5 | 0.00 | 3.19 | 3.19 | 97 | 1014.0 |
| 20260502022100 | 59 | 2 | 0.0 | 5.2 | 0.00 | 3.19 | 3.19 | 97 | 1013.9 |
| 20260502021557 | 59 | 19 | 0.9 | 3.5 | 0.00 | 3.19 | 3.19 | 97 | 1014.1 |
| 20260502021054 | 59 | 335 | 0.9 | 1.7 | 0.07 | 3.19 | 3.19 | 97 | 1014.2 |
| 20260502020551 | 59 | 36 | 1.7 | 7.0 | 0.07 | 3.19 | 3.19 | 97 | 1014.4 |
| 20260502020048 | 59 | 15 | 1.7 | 3.5 | 0.00 | 3.18 | 3.18 | 97 | 1014.4 |
| 20260502015546 | 59 | 275 | 0.9 | 3.5 | 0.05 | 3.18 | 3.18 | 97 | 1014.4 |
| 20260502015042 | 59 | 357 | 1.7 | 5.2 | 0.05 | 3.18 | 3.18 | 97 | 1014.3 |
| 20260502014539 | 59 | 10 | 1.7 | 3.5 | 0.07 | 3.17 | 3.17 | 97 | 1014.4 |
| 20260502014037 | 59 | 10 | 1.7 | 3.5 | 0.12 | 3.17 | 3.17 | 97 | 1014.0 |
| 20260502013532 | 59 | 16 | 1.7 | 3.5 | 0.12 | 3.16 | 3.16 | 97 | 1013.9 |
| 20260502013028 | 59 | 19 | 0.9 | 1.7 | 0.07 | 3.15 | 3.15 | 97 | 1013.9 |
| 20260502012526 | 59 | 331 | 1.7 | 2.6 | 0.00 | 3.14 | 3.14 | 97 | 1014.0 |
| 20260502012023 | 59 | 311 | 0.9 | 1.7 | 0.00 | 3.14 | 3.14 | 97 | 1013.6 |
| 20260502011520 | 59 | 36 | 0.9 | 3.5 | 0.00 | 3.14 | 3.14 | 97 | 1013.5 |
| 20260502011016 | 59 | 14 | 2.6 | 3.5 | 0.05 | 3.14 | 3.14 | 97 | 1013.2 |
| 20260502010514 | 59 | 14 | 0.9 | 3.5 | 0.19 | 3.14 | 3.14 | 97 | 1013.2 |
| 20260502010010 | 60 | 20 | 1.7 | 3.5 | 0.14 | 3.13 | 3.13 | 97 | 1012.9 |
| 20260502005508 | 60 | 13 | 0.9 | 2.6 | 0.00 | 3.11 | 3.11 | 97 | 1013.3 |
| 20260502005005 | 60 | 328 | 0.9 | 1.7 | 0.00 | 3.11 | 3.11 | 97 | 1013.1 |
| 20260502004500 | 60 | 14 | 0.9 | 2.6 | 0.00 | 3.11 | 3.11 | 97 | 1013.1 |
| 20260502003958 | 59 | 4 | 0.0 | 1.7 | 0.00 | 3.11 | 3.11 | 97 | 1012.8 |
| 20260502003455 | 59 | 8 | 1.7 | 7.8 | 0.05 | 3.11 | 3.11 | 97 | 1012.4 |
| 20260502002951 | 60 | 57 | 1.7 | 5.2 | 0.05 | 3.11 | 3.11 | 97 | 1012.0 |
| 20260502002449 | 60 | 3 | 2.6 | 6.1 | 0.00 | 3.10 | 3.10 | 97 | 1011.9 |
| 20260502001946 | 60 | 26 | 1.7 | 2.6 | 0.07 | 3.10 | 3.10 | 97 | 1012.0 |
| 20260502001443 | 60 | 354 | 0.9 | 2.6 | 0.19 | 3.10 | 3.10 | 97 | 1012.2 |
| 20260502000941 | 60 | 8 | 0.0 | 1.7 | 0.28 | 3.09 | 3.09 | 97 | 1012.5 |
| 20260502000440 | 60 | 26 | 3.5 | 5.2 | 0.42 | 3.07 | 3.07 | 97 | 1012.3 |
| 20260501235935 | 60 | 350 | 1.7 | 6.1 | 0.47 | 3.03 | 3.03 | 97 | 1012.4 |
| 20260501235431 | 60 | 59 | 2.6 | 6.1 | 0.54 | 2.99 | 2.99 | 97 | 1012.6 |
| 20260501234926 | 60 | 301 | 0.9 | 1.7 | 0.28 | 2.94 | 2.94 | 97 | 1012.5 |
| 20260501234423 | 61 | 267 | 1.7 | 7.8 | 0.12 | 2.90 | 2.90 | 97 | 1011.7 |
| 20260501233922 | 60 | 349 | 1.7 | 3.5 | 0.00 | 2.88 | 2.88 | 97 | 1011.3 |
| 20260501233419 | 61 | 27 | 3.5 | 7.8 | 0.07 | 2.88 | 2.88 | 97 | 1011.4 |
| 20260501232914 | 61 | 358 | 1.7 | 5.2 | 0.24 | 2.88 | 2.88 | 97 | 1010.5 |
| 20260501232412 | 61 | 9 | 4.3 | 8.7 | 0.28 | 2.87 | 2.87 | 97 | 1010.6 |
| 20260501231909 | 61 | 11 | 1.7 | 7.0 | 0.19 | 2.84 | 2.84 | 97 | 1011.2 |
| 20260501231408 | 61 | 320 | 0.9 | 5.2 | 0.12 | 2.82 | 2.82 | 97 | 1011.4 |
| 20260501230905 | 61 | 8 | 0.9 | 5.2 | 0.24 | 2.81 | 2.81 | 97 | 1011.2 |
| 20260501230404 | 61 | 353 | 1.7 | 7.8 | 0.38 | 2.80 | 2.80 | 97 | 1010.9 |
| 20260501225901 | 61 | 20 | 2.6 | 7.0 | 0.59 | 2.77 | 2.77 | 97 | 1010.6 |
| 20260501225359 | 61 | 22 | 1.7 | 6.1 | 0.28 | 2.72 | 2.72 | 96 | 1011.2 |
| 20260501224854 | 62 | 344 | 1.7 | 6.1 | 0.00 | 2.67 | 2.67 | 96 | 1011.2 |
| 20260501224352 | 62 | 26 | 1.7 | 3.5 | 0.00 | 2.67 | 2.67 | 96 | 1011.0 |
| 20260501223848 | 62 | 11 | 0.9 | 5.2 | 0.00 | 2.67 | 2.67 | 97 | 1011.0 |
| 20260501223344 | 62 | 44 | 1.7 | 2.6 | 0.00 | 2.67 | 2.67 | 97 | 1011.1 |
| 20260501222840 | 62 | 46 | 1.7 | 2.6 | 0.00 | 2.67 | 2.67 | 97 | 1011.0 |
| 20260501222338 | 62 | 24 | 0.0 | 3.5 | 0.00 | 2.67 | 2.67 | 97 | 1010.8 |
| 20260501221834 | 63 | 36 | 0.9 | 3.5 | 0.00 | 2.67 | 2.67 | 97 | 1010.8 |
| 20260501221332 | 63 | 9 | 2.6 | 6.1 | 0.00 | 2.67 | 2.67 | 97 | 1010.6 |
| 20260501220830 | 63 | 322 | 1.7 | 7.8 | 0.00 | 2.67 | 2.67 | 97 | 1010.8 |
| 20260501220327 | 63 | 6 | 2.6 | 5.2 | 0.07 | 2.67 | 2.67 | 97 | 1011.1 |
| 20260501215823 | 63 | 103 | 0.9 | 5.2 | 0.00 | 2.66 | 2.66 | 97 | 1011.0 |
| 20260501215319 | 63 | 0 | 1.7 | 5.2 | 0.00 | 2.66 | 2.66 | 97 | 1011.1 |
| 20260501214815 | 63 | 333 | 0.9 | 5.2 | 0.00 | 2.66 | 2.66 | 97 | 1011.2 |
| 20260501214310 | 63 | 33 | 2.6 | 3.5 | 0.05 | 2.66 | 2.66 | 98 | 1011.2 |
| 20260501213807 | 63 | 61 | 1.7 | 3.5 | 0.05 | 2.66 | 2.66 | 98 | 1011.2 |
| 20260501213303 | 63 | 355 | 0.0 | 5.2 | 0.00 | 2.65 | 2.65 | 98 | 1011.9 |
| 20260501212759 | 63 | 13 | 0.9 | 1.7 | 0.00 | 2.65 | 2.65 | 98 | 1011.7 |
| 20260501212255 | 63 | 13 | 0.9 | 2.6 | 0.00 | 2.65 | 2.65 | 98 | 1011.2 |
| 20260501211753 | 63 | 350 | 0.9 | 7.0 | 0.00 | 2.65 | 2.65 | 98 | 1010.9 |
| 20260501211250 | 63 | 24 | 0.0 | 2.6 | 0.00 | 2.65 | 2.65 | 98 | 1011.2 |
| 20260501210747 | 63 | 327 | 1.7 | 1.7 | 0.00 | 2.65 | 2.65 | 98 | 1011.1 |
| 20260501210244 | 63 | 321 | 1.7 | 5.2 | 0.12 | 2.65 | 2.65 | 98 | 1010.4 |
| 20260501205740 | 63 | 32 | 1.7 | 1.7 | 0.50 | 2.65 | 2.65 | 98 | 1010.7 |
| 20260501205237 | 63 | 27 | 1.7 | 2.6 | 0.50 | 2.63 | 2.63 | 98 | 1010.6 |
| 20260501204734 | 63 | 335 | 0.9 | 3.5 | 0.12 | 2.56 | 2.56 | 98 | 1010.3 |
| 20260501204231 | 63 | 124 | 0.9 | 2.6 | 0.17 | 2.55 | 2.55 | 98 | 1010.1 |
| 20260501203727 | 63 | 16 | 1.7 | 5.2 | 0.19 | 2.54 | 2.54 | 98 | 1009.9 |
| 20260501203225 | 63 | 34 | 5.2 | 7.8 | 0.14 | 2.52 | 2.52 | 98 | 1009.7 |
| 20260501202721 | 63 | 9 | 1.7 | 6.1 | 0.12 | 2.51 | 2.51 | 98 | 1010.1 |
| 20260501202218 | 63 | 8 | 2.6 | 6.1 | 0.12 | 2.50 | 2.50 | 98 | 1009.6 |
| 20260501201715 | 63 | 290 | 1.7 | 6.1 | 0.12 | 2.49 | 2.49 | 98 | 1009.9 |
| 20260501201212 | 63 | 273 | 1.7 | 3.5 | 0.17 | 2.48 | 2.48 | 98 | 1010.0 |
| 20260501200709 | 63 | 356 | 1.7 | 3.5 | 0.05 | 2.46 | 2.46 | 98 | 1009.5 |
| 20260501200206 | 63 | 77 | 1.7 | 3.5 | 0.00 | 2.45 | 2.45 | 98 | 1010.2 |
| 20260501195703 | 63 | 89 | 0.9 | 2.6 | 0.07 | 2.45 | 2.45 | 98 | 1009.8 |
| 20260501195159 | 63 | 339 | 0.9 | 2.6 | 0.12 | 2.45 | 2.45 | 98 | 1009.8 |
| 20260501194655 | 63 | 22 | 0.9 | 2.6 | 0.54 | 2.44 | 2.44 | 98 | 1010.2 |
| 20260501194150 | 63 | 321 | 1.7 | 3.5 | 0.90 | 2.43 | 2.43 | 98 | 1009.5 |
| 20260501193648 | 63 | 122 | 1.7 | 3.5 | 1.02 | 2.32 | 2.32 | 97 | 1009.8 |
| 20260501193147 | 63 | 146 | 0.9 | 1.7 | 1.79 | 2.27 | 2.27 | 97 | 1010.1 |
| 20260501192643 | 63 | 14 | 0.0 | 2.6 | 1.79 | 2.14 | 2.14 | 97 | 1009.5 |
| 20260501192140 | 64 | 28 | 0.9 | 0.9 | 0.85 | 1.95 | 1.95 | 97 | 1010.0 |
| 20260501191638 | 64 | 302 | 2.6 | 2.6 | 0.31 | 1.84 | 1.84 | 97 | 1010.4 |
| 20260501191135 | 64 | 14 | 1.7 | 5.2 | 0.24 | 1.82 | 1.82 | 97 | 1009.5 |
| 20260501190631 | 64 | 12 | 1.7 | 5.2 | 0.12 | 1.79 | 1.79 | 97 | 1009.6 |
| 20260501190126 | 64 | 297 | 0.0 | 2.6 | 0.12 | 1.78 | 1.78 | 97 | 1009.2 |
| 20260501185623 | 64 | 5 | 1.7 | 5.2 | 0.05 | 1.77 | 1.77 | 97 | 1009.5 |
| 20260501185118 | 63 | 331 | 1.7 | 5.2 | 0.07 | 1.76 | 1.76 | 97 | 1009.0 |
| 20260501184615 | 63 | 184 | 1.7 | 7.8 | 0.26 | 1.76 | 1.76 | 97 | 1009.3 |
| 20260501184109 | 63 | 16 | 0.9 | 2.6 | 0.24 | 1.74 | 1.74 | 97 | 1009.4 |
| 20260501183606 | 64 | 46 | 0.9 | 3.5 | 0.17 | 1.72 | 1.72 | 97 | 1009.8 |
| 20260501183103 | 64 | 30 | 1.7 | 2.6 | 0.07 | 1.69 | 1.69 | 97 | 1011.4 |
| 20260501182600 | 64 | 315 | 0.9 | 1.7 | 0.12 | 1.69 | 1.69 | 97 | 1011.6 |
| 20260501182057 | 63 | 288 | 0.0 | 0.9 | 0.17 | 1.68 | 1.68 | 97 | 1010.7 |
| 20260501181554 | 63 | 313 | 0.9 | 3.5 | 0.24 | 1.67 | 1.67 | 97 | 1009.9 |
| 20260501181050 | 64 | 81 | 3.5 | 7.8 | 0.31 | 1.65 | 1.65 | 97 | 1009.8 |
| 20260501180548 | 64 | 6 | 1.7 | 1.7 | 0.24 | 1.62 | 1.62 | 97 | 1010.4 |
| 20260501180044 | 64 | 15 | 1.7 | 5.2 | 0.12 | 1.60 | 1.60 | 97 | 1011.5 |
| 20260501175541 | 64 | 318 | 0.0 | 1.7 | 0.00 | 1.58 | 1.58 | 97 | 1011.4 |
| 20260501175038 | 64 | 14 | 0.9 | 3.5 | 0.00 | 1.58 | 1.58 | 97 | 1011.0 |
| 20260501174535 | 64 | 128 | 1.7 | 5.2 | 0.07 | 1.58 | 1.58 | 97 | 1010.6 |
| 20260501174033 | 64 | 58 | 0.9 | 2.6 | 0.07 | 1.58 | 1.58 | 97 | 1010.6 |
| 20260501173530 | 64 | 8 | 1.7 | 5.2 | 0.00 | 1.57 | 1.57 | 97 | 1010.9 |
| 20260501173026 | 64 | 21 | 1.7 | 3.5 | 0.00 | 1.57 | 1.57 | 97 | 1011.1 |
| 20260501172522 | 64 | 92 | 4.3 | 7.8 | 0.00 | 1.57 | 1.57 | 97 | 1010.7 |
| 20260501172018 | 64 | 84 | 2.6 | 5.2 | 0.05 | 1.57 | 1.57 | 97 | 1010.4 |
| 20260501171514 | 64 | 48 | 1.7 | 1.7 | 0.12 | 1.57 | 1.57 | 97 | 1010.8 |
| 20260501171011 | 64 | 245 | 1.7 | 5.2 | 0.24 | 1.56 | 1.56 | 97 | 1010.7 |
| 20260501170507 | 64 | 345 | 1.7 | 3.5 | 0.17 | 1.55 | 1.55 | 97 | 1011.1 |
| 20260501170005 | 64 | 2 | 1.7 | 3.5 | 0.00 | 1.52 | 1.52 | 97 | 1011.7 |
| 20260501165503 | 64 | 48 | 1.7 | 2.6 | 0.00 | 1.52 | 1.52 | 97 | 1011.9 |
| 20260501165000 | 64 | 18 | 0.0 | 5.2 | 0.07 | 1.52 | 1.52 | 97 | 1011.5 |
| 20260501164458 | 64 | 342 | 0.9 | 3.5 | 0.14 | 1.52 | 1.52 | 97 | 1011.5 |
| 20260501163954 | 64 | 45 | 1.7 | 5.2 | 0.19 | 1.51 | 1.51 | 97 | 1011.6 |
| 20260501163450 | 64 | 34 | 1.7 | 3.5 | 0.78 | 1.49 | 1.49 | 97 | 1011.9 |